AF5AA Weather Reports


Display with metric or nautical units.
time (UTC)temp
F
wind
direction
speed
MPH
gust
MPH
rain 1hr
in
rain 24hr
in
rain mn
in
humidity
%
barometer
mb
20260831121846 71 105 0.0 0.0 0.00 0.00 0.00 89 1016.0
20260831121343 71 110 0.0 0.0 0.00 0.00 0.00 88 1016.1
20260831120838 71 111 0.0 0.0 0.00 0.00 0.00 88 1015.7
20260831120332 72 110 0.0 0.0 0.00 0.00 0.00 88 1016.0
20260831115827 72 109 0.0 0.0 0.00 0.00 0.00 87 1015.8
20260831115324 72 109 0.0 0.0 0.00 0.00 0.00 88 1015.6
20260831114823 72 109 0.0 0.0 0.00 0.00 0.00 88 1015.6
20260831114321 72 109 0.0 0.0 0.00 0.00 0.00 88 1015.6
20260831113817 72 107 0.0 0.0 0.00 0.00 0.00 88 1015.7
20260831113312 72 108 0.0 0.0 0.00 0.00 0.00 87 1015.5
20260831112811 72 109 0.0 0.0 0.00 0.00 0.00 87 1015.4
20260831112301 72 108 0.0 0.0 0.00 0.00 0.00 87 1015.5
20260831111756 72 109 0.0 0.0 0.00 0.00 0.00 86 1015.6
20260831111253 72 109 0.0 0.0 0.00 0.00 0.00 87 1015.8
20260831110749 73 109 0.0 0.0 0.00 0.00 0.00 86 1015.5
20260831110243 73 109 0.0 0.0 0.00 0.00 0.00 84 1015.4
20260831105742 73 108 0.0 0.0 0.00 0.00 0.00 84 1015.4
20260831105238 73 108 0.0 0.0 0.00 0.00 0.00 85 1015.5
20260831104732 73 108 0.0 0.0 0.00 0.00 0.00 85 1015.4
20260831104230 73 109 0.0 0.0 0.00 0.00 0.00 84 1015.4
20260831103729 73 109 0.0 0.0 0.00 0.00 0.00 84 1015.4
20260831103225 73 109 0.0 0.0 0.00 0.00 0.00 83 1015.3
20260831102724 74 109 0.0 0.0 0.00 0.00 0.00 84 1015.3
20260831102219 74 109 0.0 0.0 0.00 0.00 0.00 82 1015.4
20260831101715 74 108 0.0 0.0 0.00 0.00 0.00 82 1015.4
20260831101210 74 107 0.0 0.0 0.00 0.00 0.00 82 1015.3
20260831100706 74 107 0.0 0.0 0.00 0.00 0.00 82 1015.3
20260831100202 74 107 0.0 0.0 0.00 0.00 0.00 82 1015.3
20260831095700 74 107 0.0 0.0 0.00 0.00 0.00 82 1015.4
20260831095155 75 107 0.0 0.0 0.00 0.00 0.00 82 1015.2
20260831094650 75 107 0.0 0.0 0.00 0.00 0.00 81 1015.3
20260831094146 75 107 0.0 0.0 0.00 0.00 0.00 81 1015.3
20260831093642 75 107 0.0 0.0 0.00 0.00 0.00 81 1015.2
20260831093138 75 107 0.0 0.0 0.00 0.00 0.00 80 1015.1
20260831092634 75 107 0.0 0.0 0.00 0.00 0.00 80 1015.1
20260831092129 75 107 0.0 0.0 0.00 0.00 0.00 80 1015.1
20260831091629 75 107 0.0 0.0 0.00 0.00 0.00 80 1015.0
20260831091124 75 107 0.0 0.0 0.00 0.00 0.00 79 1015.0
20260831090620 76 107 0.0 0.0 0.00 0.00 0.00 79 1015.3
20260831090116 76 107 0.0 0.0 0.00 0.00 0.00 79 1015.0
20260831085611 76 107 0.0 0.0 0.00 0.00 0.00 78 1015.2
20260831085106 76 107 0.0 0.0 0.00 0.00 0.00 77 1015.1
20260831084602 76 105 0.0 0.0 0.00 0.00 0.00 77 1015.0
20260831084058 76 104 0.0 0.0 0.00 0.00 0.00 77 1015.1
20260831083553 76 103 0.0 0.0 0.00 0.00 0.00 77 1015.3
20260831083048 77 107 0.0 0.0 0.00 0.00 0.00 77 1015.1
20260831082542 77 107 0.0 0.0 0.00 0.00 0.00 76 1015.0
20260831082037 77 104 0.0 0.0 0.00 0.00 0.00 76 1014.9
20260831081533 77 104 0.0 0.0 0.00 0.00 0.00 76 1015.1
20260831081028 77 108 0.0 0.0 0.00 0.00 0.00 75 1015.1
20260831080523 77 105 0.0 0.0 0.00 0.00 0.00 75 1015.1
20260831080018 77 105 0.0 0.0 0.00 0.00 0.00 75 1015.1
20260831075513 77 105 0.0 0.0 0.00 0.00 0.00 75 1015.3
20260831075009 77 105 0.0 0.0 0.00 0.00 0.00 75 1015.1
20260831074509 77 105 0.0 0.0 0.00 0.00 0.00 75 1015.1
20260831074009 77 104 0.0 0.0 0.00 0.00 0.00 74 1015.1
20260831073503 77 106 0.0 0.0 0.00 0.00 0.00 74 1015.1
20260831073002 78 107 0.0 0.0 0.00 0.00 0.00 74 1015.0
20260831072458 78 107 0.0 0.0 0.00 0.00 0.00 74 1015.1
20260831071954 78 107 0.0 0.0 0.00 0.00 0.00 74 1015.2
20260831071453 78 106 0.0 0.0 0.00 0.00 0.00 73 1014.8
20260831070948 78 107 0.0 0.0 0.00 0.00 0.00 71 1015.1
20260831070447 78 106 0.0 0.0 0.00 0.00 0.00 71 1015.6
20260831065947 78 104 0.0 0.0 0.00 0.00 0.00 71 1014.9
20260831065445 78 104 0.0 0.0 0.00 0.00 0.00 71 1015.2
20260831064940 79 104 0.0 0.0 0.00 0.00 0.00 71 1015.3
20260831064435 79 104 0.0 0.0 0.00 0.00 0.00 70 1015.3
20260831063931 79 106 0.0 0.0 0.00 0.00 0.00 70 1015.3
20260831063425 79 106 0.0 0.0 0.00 0.00 0.00 69 1015.3
20260831062919 80 107 0.0 0.0 0.00 0.00 0.00 70 1015.1
20260831062416 80 107 0.0 0.0 0.00 0.00 0.00 68 1015.2
20260831061914 80 107 0.0 0.0 0.00 0.00 0.00 69 1015.4
20260831061413 80 108 0.0 0.0 0.00 0.00 0.00 68 1015.2
20260831060909 80 108 0.0 0.0 0.00 0.00 0.00 67 1015.1
20260831060404 80 106 0.0 0.0 0.00 0.00 0.00 67 1014.8
20260831055904 80 108 0.0 0.0 0.00 0.00 0.00 67 1014.8
20260831055359 80 109 0.0 0.0 0.00 0.00 0.00 67 1014.8
20260831054854 80 105 0.0 0.0 0.00 0.00 0.00 68 1014.8
20260831054349 80 105 0.0 0.0 0.00 0.00 0.00 66 1014.8
20260831053848 80 105 0.0 0.0 0.00 0.00 0.00 66 1014.8
20260831053346 80 108 0.0 0.0 0.00 0.00 0.00 67 1014.9
20260831052841 80 107 0.0 0.0 0.00 0.00 0.00 66 1015.0
20260831052341 80 108 0.0 0.0 0.00 0.00 0.00 67 1014.8
20260831051839 81 108 0.0 0.0 0.00 0.00 0.00 66 1014.8
20260831051338 81 108 0.0 0.0 0.00 0.00 0.00 66 1014.6
20260831050832 81 108 0.0 0.0 0.00 0.00 0.00 66 1014.6
20260831050332 81 94 0.0 0.0 0.00 0.00 0.00 67 1014.8
20260831045826 81 104 0.0 0.0 0.00 0.00 0.00 66 1014.4
20260831045320 81 104 0.0 0.0 0.00 0.00 0.00 66 1014.5
20260831044816 81 107 0.0 0.0 0.00 0.00 0.00 63 1014.4
20260831044310 81 107 0.0 0.0 0.00 0.00 0.00 65 1014.7
20260831043807 81 107 0.0 0.0 0.00 0.00 0.00 66 1014.6
20260831043306 81 104 0.0 0.0 0.00 0.00 0.00 65 1014.3
20260831042801 81 104 0.0 0.0 0.00 0.00 0.00 66 1014.5
20260831042301 81 104 0.0 0.0 0.00 0.00 0.00 67 1014.6
20260831041756 81 104 0.0 0.0 0.00 0.00 0.00 66 1014.2
20260831041255 81 103 0.0 0.0 0.00 0.00 0.00 66 1014.3
20260831040750 81 103 0.0 0.0 0.00 0.00 0.00 65 1014.4
20260831040249 81 101 0.0 0.0 0.00 0.00 0.00 66 1014.3
20260831035748 81 101 0.0 0.0 0.00 0.00 0.00 67 1014.2
20260831035247 81 100 0.0 0.0 0.00 0.00 0.00 66 1014.2
20260831034746 81 102 0.0 0.0 0.00 0.00 0.00 66 1014.1
20260831034242 81 96 0.0 0.0 0.00 0.00 0.00 66 1014.1
20260831033737 81 103 0.0 0.0 0.00 0.00 0.00 66 1014.1
20260831033237 81 85 0.0 0.0 0.00 0.00 0.00 66 1013.9
20260831032732 81 107 0.0 0.0 0.00 0.00 0.00 65 1013.9
20260831032227 81 110 0.0 0.0 0.00 0.00 0.00 65 1013.9
20260831031722 81 111 0.0 0.0 0.00 0.00 0.00 64 1013.9
20260831031217 81 104 0.0 0.0 0.00 0.00 0.00 65 1013.8
20260831030716 82 104 0.0 0.0 0.00 0.00 0.00 65 1013.7
20260831030215 82 104 0.0 0.0 0.00 0.00 0.00 63 1013.6
20260831025714 82 104 0.0 0.0 0.00 0.00 0.00 64 1013.7
20260831025209 83 105 0.0 0.0 0.00 0.00 0.00 62 1013.4
20260831024705 83 108 0.0 0.0 0.00 0.00 0.00 63 1013.3
20260831024203 83 108 0.0 0.0 0.00 0.00 0.00 61 1013.4
20260831023701 83 108 0.0 0.0 0.00 0.00 0.00 61 1013.2
20260831023155 84 108 0.0 0.0 0.00 0.00 0.00 60 1013.2
20260831022651 84 108 0.0 0.0 0.00 0.00 0.00 60 1013.2
20260831022145 85 108 0.0 0.0 0.00 0.00 0.00 59 1013.2
20260831021644 85 108 0.0 0.0 0.00 0.00 0.00 59 1013.0
20260831021134 85 108 0.0 0.0 0.00 0.00 0.00 59 1013.0
20260831020631 86 108 0.0 0.0 0.00 0.00 0.00 59 1013.0
20260831020125 86 108 0.0 0.0 0.00 0.00 0.00 58 1012.5
20260831015620 86 108 0.0 0.0 0.00 0.00 0.00 57 1012.6
20260831015114 86 108 0.0 0.0 0.00 0.00 0.00 56 1012.8
20260831014609 87 108 0.0 0.0 0.00 0.00 0.00 54 1012.8
20260831014104 87 107 0.0 0.0 0.00 0.00 0.00 53 1012.6
20260831013601 87 107 0.0 0.0 0.00 0.00 0.00 54 1012.5
20260831013055 87 107 0.0 0.0 0.00 0.00 0.00 53 1012.5
20260831012554 87 107 0.0 0.0 0.00 0.00 0.00 53 1012.4
20260831012050 88 117 0.0 0.0 0.00 0.00 0.00 52 1012.5
20260831011549 88 124 0.0 0.0 0.00 0.00 0.00 51 1012.4
20260831011044 89 104 0.0 0.0 0.00 0.00 0.00 51 1012.3
20260831010540 89 103 0.0 0.0 0.00 0.00 0.00 51 1012.4
20260831010036 89 103 0.0 0.0 0.00 0.00 0.00 50 1012.2
20260831005531 90 97 0.0 0.0 0.00 0.00 0.00 49 1012.4
20260831005030 91 98 0.0 0.0 0.00 0.00 0.00 47 1012.1
20260831004527 91 100 0.0 0.0 0.00 0.00 0.00 48 1012.2
20260831004022 92 108 0.0 0.0 0.00 0.00 0.00 46 1012.3
20260831003518 92 108 0.0 0.0 0.00 0.00 0.00 45 1012.3
20260831003014 93 108 0.0 0.0 0.00 0.00 0.00 44 1012.3
20260831002512 93 108 0.0 0.0 0.00 0.00 0.00 43 1012.3
20260831002008 94 108 0.0 0.0 0.00 0.00 0.00 42 1012.3
20260831001503 95 108 0.0 0.0 0.00 0.00 0.00 42 1012.1
20260831001000 95 108 0.0 0.0 0.00 0.00 0.00 40 1012.3
20260831000455 95 108 0.0 0.0 0.00 0.00 0.00 41 1012.2
20260830235953 95 108 0.0 0.0 0.00 0.00 0.00 40 1012.4
20260830235448 96 107 0.0 0.0 0.00 0.00 0.00 40 1012.1
20260830234944 96 107 0.0 0.0 0.00 0.00 0.00 39 1012.1
20260830234438 96 103 0.0 0.0 0.00 0.00 0.00 40 1012.3
20260830233934 96 111 0.0 0.0 0.00 0.00 0.00 39 1012.0
20260830233430 96 107 0.0 0.0 0.00 0.00 0.00 39 1012.4
20260830232925 97 118 0.0 0.0 0.00 0.00 0.00 39 1012.4
20260830232421 97 111 0.0 0.0 0.00 0.00 0.00 38 1012.4
20260830231918 97 103 0.0 0.0 0.00 0.00 0.00 37 1012.4
20260830231412 98 108 0.0 0.0 0.00 0.00 0.00 36 1012.4
20260830230912 98 102 0.0 1.0 0.00 0.00 0.00 36 1012.6
20260830230408 98 112 0.0 0.0 0.00 0.00 0.00 37 1012.3
20260830225906 98 98 0.0 0.0 0.00 0.00 0.00 36 1012.3
20260830225402 98 106 0.0 0.0 0.00 0.00 0.00 37 1012.4
20260830224857 98 119 0.0 0.0 0.00 0.00 0.00 36 1012.4
20260830224356 98 117 0.0 0.0 0.00 0.00 0.00 37 1012.4
20260830223853 98 24 1.0 2.0 0.00 0.00 0.00 36 1012.3
20260830223349 98 92 0.0 0.0 0.00 0.00 0.00 36 1012.2
20260830222848 99 80 0.0 0.0 0.00 0.00 0.00 37 1012.4
20260830222343 99 110 0.0 0.0 0.00 0.00 0.00 35 1012.3
20260830221838 99 120 0.0 0.0 0.00 0.00 0.00 35 1012.4
20260830221335 99 107 0.0 0.0 0.00 0.00 0.00 36 1012.4
20260830220830 100 102 0.0 0.0 0.00 0.00 0.00 35 1012.5
20260830220324 100 132 0.0 0.0 0.00 0.00 0.00 35 1012.5
20260830215822 100 90 0.0 0.0 0.00 0.00 0.00 34 1012.4
20260830215317 100 155 1.0 1.0 0.00 0.00 0.00 35 1012.6
20260830214812 100 99 1.0 2.0 0.00 0.00 0.00 35 1013.0
20260830214307 100 119 0.0 0.0 0.00 0.00 0.00 34 1012.5
20260830213806 100 79 1.0 1.0 0.00 0.00 0.00 36 1012.5
20260830213301 100 95 0.0 0.0 0.00 0.00 0.00 34 1012.8
20260830212757 100 20 1.0 1.0 0.00 0.00 0.00 35 1012.9
20260830212253 102 288 2.0 2.0 0.00 0.00 0.00 32 1013.0
20260830211752 100 126 0.0 0.0 0.00 0.00 0.00 34 1013.0
20260830211251 100 126 0.0 1.0 0.00 0.00 0.00 33 1013.0
20260830210748 100 146 3.0 3.0 0.00 0.00 0.00 34 1012.9
20260830210246 100 114 0.0 0.0 0.00 0.00 0.00 34 1013.1
20260830205744 100 122 0.0 0.0 0.00 0.00 0.00 33 1013.1
20260830205239 100 58 0.0 1.0 0.00 0.00 0.00 33 1013.2
20260830204734 101 71 1.0 1.0 0.00 0.00 0.00 33 1013.2
20260830204233 101 127 0.0 0.0 0.00 0.00 0.00 33 1013.5
20260830203729 102 322 2.0 2.0 0.00 0.00 0.00 32 1013.4
20260830203225 101 189 1.0 1.0 0.00 0.00 0.00 33 1013.5
20260830202724 100 62 1.0 1.0 0.00 0.00 0.00 34 1013.7
20260830202220 100 71 0.0 1.0 0.00 0.00 0.00 35 1013.7
20260830201719 100 123 0.0 1.0 0.00 0.00 0.00 32 1014.0
20260830201214 100 120 0.0 0.0 0.00 0.00 0.00 35 1013.8
20260830200709 99 122 0.0 1.0 0.00 0.00 0.00 37 1014.1
20260830200209 99 105 0.0 0.0 0.00 0.00 0.00 36 1014.2
20260830195704 99 131 0.0 0.0 0.00 0.00 0.00 35 1014.2
20260830195203 98 36 2.0 3.0 0.00 0.00 0.00 38 1014.3
20260830194701 97 92 0.0 0.0 0.00 0.00 0.00 38 1014.2
20260830194156 97 102 0.0 0.0 0.00 0.00 0.00 39 1014.4
20260830193651 98 120 0.0 1.0 0.00 0.00 0.00 38 1014.4
20260830193150 100 110 0.0 0.0 0.00 0.00 0.00 35 1014.5
20260830192646 99 125 1.0 1.0 0.00 0.00 0.00 37 1014.5
20260830192141 98 94 1.0 1.0 0.00 0.00 0.00 36 1014.6
20260830191637 98 97 0.0 1.0 0.00 0.00 0.00 37 1014.7
20260830191131 97 183 1.0 1.0 0.00 0.00 0.00 42 1014.8
20260830190627 95 106 0.0 0.0 0.00 0.00 0.00 45 1014.8
20260830190121 95 111 0.0 0.0 0.00 0.00 0.00 46 1014.8
20260830185615 97 118 0.0 0.0 0.00 0.00 0.00 43 1015.2
20260830185111 96 349 0.0 0.0 0.00 0.00 0.00 44 1015.2
20260830184610 97 342 0.0 0.0 0.00 0.00 0.00 42 1015.3
20260830184110 97 129 0.0 1.0 0.00 0.00 0.00 41 1015.1
20260830183605 96 129 1.0 1.0 0.00 0.00 0.00 44 1015.3
20260830183101 95 98 0.0 0.0 0.00 0.00 0.00 46 1015.4
20260830182556 95 118 0.0 1.0 0.00 0.00 0.00 45 1015.7
20260830182052 96 134 0.0 1.0 0.00 0.00 0.00 44 1015.6
20260830181548 96 120 0.0 0.0 0.00 0.00 0.00 43 1015.7
20260830181047 96 71 0.0 1.0 0.00 0.00 0.00 43 1015.7
20260830180546 95 123 0.0 0.0 0.00 0.00 0.00 46 1015.9
20260830180047 97 205 1.0 2.0 0.00 0.00 0.00 43 1015.8
20260830175545 96 125 0.0 0.0 0.00 0.00 0.00 44 1016.0
20260830175041 96 90 3.0 3.0 0.00 0.00 0.00 45 1015.9
20260830174536 96 74 1.0 2.0 0.00 0.00 0.00 46 1015.9
20260830174031 96 147 2.0 2.0 0.00 0.00 0.00 45 1015.9
20260830173527 96 142 1.0 1.0 0.00 0.00 0.00 45 1016.0
20260830173021 96 124 0.0 0.0 0.00 0.00 0.00 46 1016.2
20260830172518 96 114 0.0 0.0 0.00 0.00 0.00 46 1016.2
20260830172015 95 111 0.0 0.0 0.00 0.00 0.00 46 1016.4
20260830171510 95 124 0.0 0.0 0.00 0.00 0.00 47 1016.4
20260830171009 95 339 3.0 3.0 0.00 0.00 0.00 48 1016.4
20260830170504 94 99 0.0 0.0 0.00 0.00 0.00 48 1016.4
20260830170002 95 136 1.0 1.0 0.00 0.00 0.00 48 1016.4
20260830165458 95 136 1.0 1.0 0.00 0.00 0.00 48 1016.6
20260830164954 94 111 0.0 0.0 0.00 0.00 0.00 48 1016.6
20260830164449 94 44 0.0 0.0 0.00 0.00 0.00 48 1016.9
20260830163946 93 103 0.0 0.0 0.00 0.00 0.00 49 1016.9
20260830163443 93 120 0.0 0.0 0.00 0.00 0.00 49 1016.9
20260830162941 93 111 0.0 0.0 0.00 0.00 0.00 49 1016.9
20260830162438 93 136 1.0 2.0 0.00 0.00 0.00 49 1016.9
20260830161938 92 95 1.0 1.0 0.00 0.00 0.00 49 1016.9
20260830161437 93 154 1.0 1.0 0.00 0.00 0.00 50 1016.9
20260830160933 92 113 0.0 0.0 0.00 0.00 0.00 50 1016.9
20260830160429 92 144 1.0 1.0 0.00 0.00 0.00 50 1017.1
20260830155924 92 112 1.0 1.0 0.00 0.00 0.00 51 1017.0
20260830155420 91 114 0.0 0.0 0.00 0.00 0.00 52 1016.9
20260830154915 91 116 0.0 0.0 0.00 0.00 0.00 53 1016.8
20260830154411 90 127 0.0 0.0 0.00 0.00 0.00 55 1016.9
20260830153907 89 115 0.0 0.0 0.00 0.00 0.00 56 1016.8
20260830153402 89 117 0.0 0.0 0.00 0.00 0.00 58 1016.8
20260830152902 88 110 0.0 0.0 0.00 0.00 0.00 60 1016.8
20260830152356 88 115 0.0 0.0 0.00 0.00 0.00 62 1016.9
20260830151855 87 95 0.0 0.0 0.00 0.00 0.00 63 1017.0
20260830151355 87 114 0.0 0.0 0.00 0.00 0.00 65 1017.1
20260830150845 87 108 0.0 0.0 0.00 0.00 0.00 66 1017.0
20260830150344 86 111 0.0 0.0 0.00 0.00 0.00 65 1017.1
20260830145839 86 110 0.0 0.0 0.00 0.00 0.00 65 1016.9
20260830145334 86 105 0.0 0.0 0.00 0.00 0.00 68 1016.9
20260830144829 85 110 0.0 0.0 0.00 0.00 0.00 69 1016.9
20260830144325 85 111 0.0 0.0 0.00 0.00 0.00 71 1016.9
20260830143821 84 107 0.0 0.0 0.00 0.00 0.00 73 1016.9
20260830143320 84 102 0.0 0.0 0.00 0.00 0.00 76 1016.9
20260830142814 83 100 0.0 0.0 0.00 0.00 0.00 78 1017.0
20260830142309 82 97 0.0 0.0 0.00 0.00 0.00 79 1016.9
20260830141805 82 97 0.0 0.0 0.00 0.00 0.00 81 1016.9
20260830141300 81 101 0.0 0.0 0.00 0.00 0.00 82 1016.9
20260830140755 81 98 0.0 0.0 0.00 0.00 0.00 83 1016.9
20260830140249 80 98 0.0 0.0 0.00 0.00 0.00 84 1016.9
20260830135744 80 98 0.0 0.0 0.00 0.00 0.00 84 1016.8
20260830135240 79 97 0.0 0.0 0.00 0.00 0.00 84 1016.9
20260830134736 78 97 0.0 0.0 0.00 0.00 0.00 86 1016.7
20260830134230 78 94 0.0 0.0 0.00 0.00 0.00 86 1016.7
20260830133726 77 94 0.0 0.0 0.00 0.00 0.00 85 1016.8
20260830133222 77 94 0.0 0.0 0.00 0.00 0.00 86 1016.9
20260830132717 77 94 0.0 0.0 0.00 0.00 0.00 86 1017.1
20260830132213 76 94 0.0 0.0 0.00 0.00 0.00 86 1017.0
20260830131711 76 94 0.0 0.0 0.00 0.00 0.00 87 1017.0
20260830131206 75 93 0.0 0.0 0.00 0.00 0.00 86 1017.0
20260830130701 75 93 0.0 0.0 0.00 0.00 0.00 86 1016.7
20260830130200 74 93 0.0 0.0 0.00 0.00 0.00 87 1016.8
20260830125654 74 93 0.0 0.0 0.00 0.00 0.00 89 1016.7
20260830125149 74 93 0.0 0.0 0.00 0.00 0.00 89 1016.7
20260830124647 74 94 0.0 0.0 0.00 0.00 0.00 89 1016.5
20260830124143 73 94 0.0 0.0 0.00 0.00 0.00 89 1016.5
20260830123640 73 94 0.0 0.0 0.00 0.00 0.00 88 1016.6
20260830123135 73 94 0.0 0.0 0.00 0.00 0.00 89 1016.5
20260830122632 73 94 0.0 0.0 0.00 0.00 0.00 89 1016.5
20260830122127 73 94 0.0 0.0 0.00 0.00 0.00 89 1016.4